Location: Bonningues
(50.7927°N, 2.0150°E)
Time: 06:16:48
(UTC+00:00)

CENTAUR R/B - Pass Details

Date: 08 August 2020
Orbit: 756 x 1432 km, 63.4° (Epoch: 19 September)

Event Time Altitude Azimuth Distance (km) Brightness Sun altitude
Exits shadow 22:51:55 17° 224° (SW) 2,170 4.0 -21.9°
Maximum altitude 22:56:49 87° 312° (NW) 1,032 2.6 -22.1°
Drops below altitude 10° 23:04:09 10° 44° (NE) 3,089 5.5 -22.4°
Sets 23:07:07 0° 45° (NE) 4,156 6.2 -22.5°
